Regional Weather Roundup
Issued by NWS Pendleton, OR

Home | Current Version | Previous Version | Text Only | Print | Product List | Glossary On
Versions: 1 2 3 4 5 6 7 8 9 10 11 12 13 14 15 16 17 18 19 20 21 22 23 24 25 26 27 28 29 30 31 32 33 34 35 36 37 38 39 40 41 42 43 44 45 46 47 48 49 50
000
ASUS46 KPDT 221110
RWRPDT
PENDLETON REGIONAL WEATHER ROUNDUP
NATIONAL WEATHER SERVICE PENDLETON OREGON
300 AM PST WED FEB 22 2017

NOTE: FAIR INDICATES FEW OR NO CLOUDS BELOW 12,000 FEET WITH NO
SIGNIFICANT WEATHER AND/OR OBSTRUCTIONS TO VISIBILITY.

# INDICATES UNOFFICIAL STATION AND DATA

WAZ520-221210-
EAST SLOPES OF WASHINGTON CASCADES

CITY            SKY/WX      TMP DP  RH  WIND    PRES   REMARKS
#CLE ELUM HS    N/A         34  24  66  N6      30.02F
#CLE ELUM LAKE  N/A         N/A N/A N/A S1      30.10S
#GLENWOOD       N/A         28  27  96  CALM    30.11F
#MANASTASH CYN  N/A         27  22  81  CALM    30.00F
#NELSON 3SW     N/A         29  22  75  NE1     30.32F
#NILE           N/A         33  25  72  CALM    29.37F
#TEANAWAY 4NE   N/A         34  26  72  W1      N/A
#TROUT LAKE 1NE N/A         34  28  78  W8      30.11F
#TROUT LAKE 1E  N/A         32  27  82  CALM    30.09F
$$

WAZ521-221210-
SIMCOE HIGHLANDS

CITY            SKY/WX      TMP DP  RH  WIND    PRES   REMARKS
#BICKLETON HS   N/A         32  21  63  W16     29.62S WCI 21
#CENTERVILLE 1SWN/A         31  27  85  W10     30.09S
#GOLDENDALE 1NE N/A         31  24  75  CALM    N/A
#GOLDENDALE 4W  N/A         30  16  55  NW3     30.09S
#LYLE 6NE       N/A         34  31  89  SW7     30.10S
#PITT 4SE       N/A         30  28  92  W15     30.14F WCI 19
$$

WAZ026-221210-
KITTITAS VALLEY

CITY            SKY/WX      TMP DP  RH  WIND    PRES   REMARKS
ELLENSBURG AP   CLOUDY      34  24  66  NW12    30.06R WCI 25
#ELLENSBURG CWU N/A         35  26  69  NW10    30.05S
#ELLENSBURG 3NE N/A         33  27  78  N6      28.14S
#ELLENSBURG 1E  N/A         35  N/A N/A W1      N/A
#KITTITAS 4N    N/A         31  24  75  W3      30.07S
#KITTITAS 3S    N/A         33  26  75  CALM    30.11S
#THORP 6N       N/A         32  25  75  NW25G35 30.11F WCI 19
$$

WAZ027-221210-
YAKIMA VALLEY

CITY            SKY/WX      TMP DP  RH  WIND    PRES   REMARKS
SUNNYSIDE AP    FRZFOG      31  31  100 CALM    30.08F VSB<1/4
YAKIMA AIRPORT  CLOUDY      36  28  72  N10     30.07S
YAKIMA-VAGABOND MOCLDY      33  26  75  E5      30.04F
#DONALD 2NE     N/A         34  22  61  W1      28.90F
#GRANDVIEW      N/A         32  30  92  CALM    30.12S
#MABTON         N/A         33  32  96  CALM    30.07F
#MOXEE 2E       N/A         35   0  22  NE3     30.03F
#NACHES 2SW     N/A         36  28  72  W8      30.04R
#TERRACE HTS    N/A         34  29  82  CALM    30.08S
#TOPPENISH      N/A         30  29  96  CALM    30.03S
#WEST VALLEY    N/A         38  25  59  N7      30.09S
#W YAKIMA       N/A         36  27  69  N2      30.11R
#WHITE SWAN 5E  N/A         30  29  96  CALM    30.11S
#WILEY CITY 3W  N/A         30  23  75  CALM    30.02R
$$

WAZ028-221210-
LOWER COLUMBIA BASIN...WASHINGTON

CITY            SKY/WX      TMP DP  RH  WIND    PRES   REMARKS
HANFORD         MOCLDY      38  29  70  W8      30.07S
PASCO           CLOUDY      35  33  92  CALM    30.10R
PROSSER AWOS    N/A         34  34  100 CALM    30.12S
RICHLAND AWOS   MOCLDY      39  36  89  SW3     30.09S
#BENTON CITY    N/A         34  33  96  CALM    30.02S
#CONNELL 5N     N/A         30  29  96  CALM    30.10S
#CONNELL 5NW    N/A         32  31  96  SW1     30.06S
#ELTOPIA 6NW    N/A         37  35  92  SW7     29.03S
#KAHLOTUS       N/A         36  34  92  W12     30.09S WCI 28
#KENNEWICK 3S   N/A         38  35  89  SW5     30.11S
#PATERSON       N/A         37  34  89  CALM    30.09S
#TOUCHET 2S     N/A         41  36  82  N2      30.09R
#WEST PASCO     N/A         36  33  89  CALM    30.08S
$$

WAZ029-221210-
FOOTHILLS OF THE BLUES...WASHINGTON

CITY            SKY/WX      TMP DP  RH  WIND    PRES   REMARKS
WALLA WALLA AP  LGT RAIN    37  34  89  S17     30.06S WCI 27
#CLYDE 6NW      N/A         35  33  92  CALM    30.09S
#DAYTON SCHOOL  N/A         37  28  70  W2      30.08S
#LOWDEN 2SE     N/A         41  36  82  CALM    30.06S
#PLEASANT VIEW 1N/A         33  32  96  SW7     30.14S
#PRESCOTT       N/A         38  36  92  CALM    30.09S
#WHITMAN COLLEGEN/A         37  35  92  SE7     30.16R
#WAITSBURG 5S   N/A         34  32  92  SE12    30.20S WCI 25
#WALLA WALLA 5E N/A         35  33  92  S12     N/A    WCI 27
#WHITMAN MISSIONN/A         40  36  85  CALM    30.12R
$$

WAZ030-221210-
BLUE MOUNTAINS...WASHINGTON

CITY            SKY/WX      TMP DP  RH  WIND    PRES   REMARKS
#DIXIE 5SE      N/A         31  30  96  S9      29.94S
#SKI BLUEWOOD   N/A         27  25  92  CALM    29.93S
$$

ORZ009-041-WAZ024-221210-
COLUMBIA RIVER GORGE

CITY            SKY/WX      TMP DP  RH  WIND    PRES   REMARKS
HOOD RIVER AP   PTCLDY      36  32  85  W3      30.15S
THE DALLES AP   PTCLDY      42  29  60  NW12    30.13F WCI 35
#ARLINGTON AIRPON/A         36  31  82  W3      30.13R
#ARLINGTON HS   N/A         40  30  67  W2      30.02S
#CELILO DOT     N/A         40  29  64  SW6     N/A
#LYLE           N/A         41  36  82  N8      30.15F
#MOSIER 1S      N/A         36  23  59  CALM    30.12S
#MURDOCK        N/A         41  35  79  W12     30.14S WCI 34
#RUFUS DOT      N/A         42  34  73  W16     N/A    WCI 34
#SMITHVILLE     N/A         40  35  82  N12     30.09R WCI 33

$$

ORZ510-221210-
NORTH CENTRAL OREGON

CITY            SKY/WX      TMP DP  RH  WIND    PRES   REMARKS
#CHENOWITH 1W   N/A         33  30  89  W24     N/A    WCI 20
#COW CYN RST AREN/A         30  26  85  SW8     N/A
#GRASS VALLEY 1SN/A         30  27  88  S2      30.22R
#KENT DOT       N/A         31  23  72  N5      N/A
#MAUPIN SCHOOL  N/A         34  29  82  CALM    30.16R
#MORO SCHOOL    N/A         35  32  89  W13     30.14S WCI 26
#SHANIKO 5WSW   N/A         28  19  68  N6      N/A
#SHANIKO 4NW    N/A         28  23  81  SW2     30.02S
#TYGH VALLEY 2NEN/A         33  29  85  CALM    30.14R
#WAPANITIA AIRPON/A         33  28  82  NW1     30.16R
#WASCO DOT      N/A         34  29  82  W6      N/A
#WASCO AIRPORT  N/A         34  30  85  W8      30.02R
#WASCO 5NE      N/A         33  30  89  N10     30.11F
$$

ORZ511-221210-
CENTRAL OREGON

CITY            SKY/WX      TMP DP  RH  WIND    PRES   REMARKS
BEND AIRPORT    MOCLDY      23  21  92  CALM    30.05F
MADRAS AIRPORT  MOCLDY      30  28  92  CALM    30.11S
PRINEVILLE AP   FRZFOG      23  21  92  MISG    30.06F VSB<1/4
REDMOND AIRPORT MOCLDY      24  20  84  CALM    30.06F
#ASHWOOD SCHOOL N/A         29  26  88  CALM    30.04S
#BEND 1SW       N/A         27  25  92  CALM    N/A
#BEND-AWBREY    N/A         26  24  92  CALM    30.12F
#BEND-KIM LN    N/A         22  20  92  CALM    30.08F
#CULVER         N/A         28  24  85  N1      30.08S
#CULVER 8W      N/A         28  24  85  CALM    30.06S
#LAKE BILLY CHINN/A         31  N/A N/A CALM    30.18F
#POWELL BUTTE 3EN/A         24  23  96  SE2     N/A
#POWELL BUTTE   N/A         30  24  78  S1      29.99F
#WARM SPRINGS   N/A         29  26  88  CALM    30.08S

$$


ORZ509-221210-
EAST SLOPES OF OREGON CASCADES

CITY            SKY/WX      TMP DP  RH  WIND    PRES   REMARKS
SISTERS AWOS    N/A         25  23  92  SW5     30.02F
#BLUE BOX PASS  N/A         25  N/A N/A SW8     N/A
#CAMP SHERMAN   N/A         26  23  88  CALM    30.22R
#LA PINE 4NW    N/A         23  20  88  CALM    30.16F
#LAVA BUTTE DOT N/A         25  23  92  CALM    N/A
#SISTERS ODOT   N/A         24  N/A N/A SE1     N/A
#SISTERS 1NW    N/A         24  22  92  CALM    N/A
#SISTERS 3N     N/A         24  20  84  CALM    30.05S
#SUNRIVER       N/A         26  24  92  CALM    30.13F
#TUMALO 3W      N/A         26  24  92  W1      30.01F
#WANOGA BUTTE D N/A         19  17  92  CALM    N/A

$$

ORZ044-221210-
LOWER COLUMBIA BASIN...OREGON

CITY            SKY/WX      TMP DP  RH  WIND    PRES   REMARKS
HERMISTON       CLOUDY      39  34  82  SW10    30.09S
#BOARDMAN SCHOOLN/A         39  34  82  SW6     30.09S
#BOARDMAN 8SW   N/A         37  33  85  SW6     30.10S
#ECHO 8SW       N/A         37  30  75  S2      30.10R
#I-84 EX 198 DOTN/A         38  32  79  N6      N/A
#IONE SCHOOL    N/A         38  23  54  S7      30.15R
#UMATILLA       N/A         39  33  79  CALM    30.04S
$$

ORZ507-221210-
NORTHERN FOOTHILLS OF THE BLUES

CITY            SKY/WX      TMP DP  RH  WIND    PRES   REMARKS
PENDLETON AIRPT CLOUDY      36  36  100 CALM    30.08S
#ADAMS 3WNW     N/A         35  33  92  SW2     30.13S
#ATHENA         N/A         33  29  85  CALM    30.16S
#CAYUSE         N/A         37  32  82  W6      30.12S
#HELIX SCHOOL   N/A         34  33  96  CALM    30.12F
#HELIX 3N       N/A         33  32  96  S6      30.03S
#HOLDMAN 5SE    N/A         35  33  92  SW2     30.06F
#HOLDMAN 6E     N/A         34  34  100 S1      29.92F
#M-F FERNDALE   N/A         37  34  89  CALM    30.06S
#M-F GROVE ELEM N/A         36  32  85  S6      30.06S
#M-FREEWATER 5SEN/A         36  33  89  S9      30.08S
#PENDLETON DNTN N/A         37  35  92  CALM    30.10R
#PDT AQUATIC CTRN/A         38  34  85  CALM    30.10S
#PDT SUNRIDGE   N/A         38  33  82  CALM    30.11S
#PENDLETON 7NW  N/A         37  32  82  CALM    32.03S
#PILOT ROCK 1S  N/A         37  24  59  S2      30.08S
#PILOT ROCK     N/A         37  30  75  SW1     30.09R
#TUTUILLA       N/A         38  32  79  S6      30.12S
#UMAPINE 2E     N/A         38  35  89  S7      30.06S
#WESTON SCHOOL  N/A         33  30  89  SW1     29.99F

$$

ORZ508-221210-
SOUTHERN FOOTHILLS OF THE BLUES

CITY            SKY/WX      TMP DP  RH  WIND    PRES   REMARKS
LEXINGTON       PTCLDY      36  28  72  SW14    30.12R WCI 27
#AJAX           N/A         33  21  61  S7      30.22R
#CONDON SCHOOL  N/A         30  28  92  W2      30.01S
#CONDON 5W      N/A         28  24  85  W6      30.01S
#HEPPNER EOC    N/A         33  27  78  SW1     30.07R
#HEPPNER 4NE    N/A         31  27  85  W9      30.14R
#LEXINGTON 2SE  N/A         35  28  75  SW3     30.07R
#MIKKALO        N/A         35  27  72  W7      30.19R
#OLEX 4N        N/A         35  31  85  SW10    30.07R
#RUGGS 5NE      N/A         32  27  82  W3      30.20S
#RUGGS 2SW      N/A         31  27  85  W7      30.15S

$$

ORZ502-503-221210-
BLUE MOUNTAINS

CITY            SKY/WX      TMP DP  RH  WIND    PRES   REMARKS
MEACHAM         CLOUDY      29  24  81  CALM    30.01S
#BATTLE MTN DOT N/A         27  22  81  CALM    N/A
#GREENHORN 9SW  N/A         28  27  96  CALM    30.03R
#HEPPNER 15SE   N/A         26  24  92  CALM    30.27S
#LADD CYN SMT   N/A         31  30  96  N8      N/A
#LADD CREEK ODOTN/A         33  32  96  N1      N/A
#LONG CREEK HS  N/A         31  31  100 CALM    N/A
#N POWDER DOT   N/A         33  32  96  W2      N/A
#PIKES PEAK     N/A         29  28  96  NW8     27.99S
#TROY SCHOOL    N/A         36  34  92  CALM    29.94S
#UKIAH          N/A         31  27  85  CALM    30.02S
#WESTON 4E      N/A         29  28  96  S3      30.09S
$$

ORZ505-221210-
JOHN DAY BASIN

CITY            SKY/WX      TMP DP  RH  WIND    PRES   REMARKS
JOHN DAY        CLOUDY      31  30  96  CALM    30.03F
#ANTELOPE 9ESE  N/A         33  28  82  CALM    N/A
#DAYVILLE SCHOOLN/A         35  30  82  CALM    30.03S
#MITCHELL       N/A         31  28  88  CALM    30.22S
#MITCHELL 8NW   N/A         31  24  75  CALM    29.95S
#MONUMENT HS    N/A         34  31  89  CALM    30.03F
#MT. VERNON 5SE N/A         29  27  92  CALM    29.97F
#SPRAY SCHOOL   N/A         36  N/A N/A CALM    N/A
#WINLOCK        N/A         32  29  89  CALM    30.01F
$$

ORZ506-221210-
OCHOCO AND JOHN DAY HIGHLANDS

CITY            SKY/WX      TMP DP  RH  WIND    PRES   REMARKS
#HORSE RIDGE DO N/A         25  23  92  CALM    N/A
#PAULINA SCHOOL N/A         31  27  85  SW6     N/A
#PINE MTN OBS   N/A         21  19  92  CALM    N/A
#PRAIRIE CITY   N/A         32  30  92  CALM    30.19S
#SENECA         N/A         29  N/A N/A N1      N/A
#SENECA 9NW     N/A         27  26  96  CALM    30.06F
$$

ORZ049-221210-
GRANDE RONDE VALLEY

CITY            SKY/WX      TMP DP  RH  WIND    PRES   REMARKS
LA GRANDE       CLOUDY      36  30  79  NW10    30.03S
#COVE           N/A         34  32  92  NW2     30.08R
#COVE 6NW       N/A         34  29  82  W8      30.09S
#ELGIN 3N       N/A         34  26  72  S5      30.00S
#ELGIN 1E       N/A         34  30  85  CALM    N/A
#IMBLER SCHOOL  N/A         34  28  78  W7      30.00R
#ISLAND CITY 4N N/A         32  31  96  CALM    30.22S
#UNION 1S       N/A         34  32  92  CALM    30.09R
$$

ORZ050-221210-
WALLOWA COUNTY

CITY            SKY/WX      TMP DP  RH  WIND    PRES   REMARKS
JOSEPH AIRPORT  CLOUDY      30  30  100 N3      29.98F
#IMNAHA SCHOOL  N/A         38  35  89  N6      30.04R
#IMNAHA 10S     N/A         32  30  92  CALM    30.01R
#JOSEPH 3N      N/A         30  25  81  CALM    30.01S
#JOSEPH 3W      N/A         28  27  96  CALM    29.81S
#LOSTINE        N/A         31  30  96  CALM    29.87S
#LOSTINE 3SE    N/A         31  30  96  CALM    30.03S
#MT HOWARD 8000 N/A         17  15  92  SE1     29.80F
#PROMISE 1S     N/A         30  27  88  E6      30.18R
#WALLOWA SCHOOL N/A         33  30  89  CALM    29.98F



$$



USA.gov is the U.S. government's official web portal to all federal, state and local government web resources and services.